Vorticity
nan nan nan nan nan nan nan nan nan nan nan nan nan nan nan nan nan nan nan nan nan nan nan nan nan nan nan nan nan nan nan nan nan nan nan nan nan nan nan nan nan nan nan nan nan
nan 5 5 6 6 6 6 6 6 6 6 7 6 6 7 9 15 23 28 15 4 12 11 5 6 3 2 5 6 7 4 5 9 8 8 7 6 9 4 6 6 4 4 10 nan
nan 6 5 5 5 6 7 7 7 7 6 7 8 8 8 12 19 23 21 24 15 6 6 5 5 6 2 5 3 1 6 5 6 8 7 6 4 5 5 5 9 13 8 5 nan
nan 5 4 5 5 6 6 6 7 7 7 9 12 13 12 13 9 7 3 23 23 9 9 7 7 5 5 6 -1 -2 7 4 3 8 7 4 3 5 8 4 3 7 14 10 nan
nan 6 6 6 5 5 6 6 6 7 9 9 9 13 15 9 4 -2 -1 13 20 13 8 7 7 2 1 3 8 6 2 6 4 6 4 5 6 5 11 9 6 2 6 10 nan
nan 7 7 6 6 6 6 5 7 9 9 9 11 14 11 -2 7 9 9 7 10 11 7 3 7 4 3 6 2 6 8 6 8 6 9 10 7 4 6 9 8 8 3 3 nan
nan 7 8 7 7 7 6 6 8 10 13 20 22 19 12 10 -2 0 6 3 8 8 10 5 4 1 -2 7 12 7 6 10 8 5 7 11 11 14 2 7 7 8 7 7 nan
nan 8 9 7 7 7 6 9 9 14 22 24 22 14 7 18 10 8 4 6 9 12 8 7 6 3 4 5 10 15 11 5 13 12 2 4 8 17 16 8 4 6 8 10 nan
nan 9 8 8 7 7 9 9 12 20 22 21 18 8 6 10 9 13 17 20 12 10 12 9 11 12 9 8 6 8 13 8 2 11 14 -2 2 9 18 14 9 8 6 8 nan
nan 8 8 8 8 8 13 19 28 18 16 11 2 2 -3 -9 -1 10 13 19 16 13 11 9 8 13 7 9 8 10 5 5 10 6 9 4 0 5 8 7 8 10 10 9 nan
nan 7 8 8 7 12 18 21 31 3 2 10 -6 -6 -3 7 8 13 10 13 19 10 10 7 7 9 9 4 -5 3 11 3 8 12 11 4 7 6 -2 3 7 9 10 9 nan
nan 7 7 8 8 17 15 16 11 7 6 15 17 17 13 5 8 13 24 15 9 8 7 4 8 6 2 4 10 1 4 6 12 14 5 8 6 6 7 9 9 8 6 8 nan
nan 7 7 10 17 17 9 11 1 11 15 16 24 18 8 1 15 10 16 21 22 14 9 12 3 7 8 4 7 10 10 6 2 8 10 12 12 11 8 7 9 9 8 8 nan
nan 7 7 16 18 12 11 3 8 15 13 17 12 4 -8 9 13 13 12 11 19 22 11 14 19 12 10 8 3 9 10 7 6 4 10 11 15 20 13 9 11 9 9 9 nan
nan 8 9 19 19 8 6 5 15 14 5 9 7 1 -1 16 14 5 6 17 5 19 33 18 17 17 6 12 12 6 9 9 7 6 1 -2 9 10 13 18 16 14 11 10 nan
nan 8 17 22 12 6 7 13 16 9 10 -7 -6 3 8 17 18 14 12 19 16 7 25 20 9 21 23 11 8 9 8 15 16 13 14 6 -1 7 21 15 9 9 11 12 nan
nan 12 23 17 8 5 12 13 11 -2 1 2 2 8 11 11 10 14 20 12 11 11 11 27 26 13 17 16 16 14 9 10 17 12 14 21 7 4 4 9 13 11 12 11 nan
nan 22 22 14 7 8 11 13 7 5 1 6 7 10 13 6 8 11 21 8 4 17 14 11 24 21 9 12 18 13 -2 2 10 10 13 11 5 12 4 4 10 8 9 15 nan
nan 25 13 6 6 9 12 8 8 7 5 6 7 14 4 5 9 11 16 13 3 5 17 13 2 10 24 28 11 14 10 1 1 10 16 13 5 9 13 16 19 14 11 11 nan
nan 13 13 3 10 12 11 8 4 2 7 10 11 4 4 7 7 11 9 4 6 4 13 14 8 -1 14 35 23 21 16 12 8 8 15 11 11 11 7 16 16 15 19 17 nan
nan 13 10 8 14 11 6 7 4 6 11 9 8 9 12 6 6 12 10 3 4 9 14 20 10 2 5 8 19 19 13 6 9 9 9 13 12 11 9 8 10 13 17 24 nan
nan 10 6 10 13 10 4 4 8 8 8 12 12 9 4 6 11 6 8 11 3 9 15 17 12 6 11 9 22 17 11 14 8 11 1 6 15 15 15 4 2 8 8 11 nan
nan 13 8 6 9 4 5 7 10 14 9 12 9 5 6 11 9 8 6 6 5 9 12 11 12 9 17 8 4 8 2 9 16 19 21 7 7 7 -7 -5 4 10 7 6 nan
nan 10 9 11 5 1 4 8 13 12 13 13 10 8 7 10 9 8 9 6 10 13 9 14 10 10 5 -1 -2 -2 2 8 17 14 16 11 6 -5 -2 1 4 9 6 -2 nan
nan 8 9 5 0 5 11 8 9 16 18 8 7 5 8 8 8 8 9 8 13 12 7 8 9 6 8 9 9 7 9 10 15 13 10 15 9 5 10 5 4 3 3 4 nan
nan 9 8 7 7 7 7 8 8 14 15 7 3 7 9 8 10 6 8 8 8 3 4 8 9 10 15 20 13 12 19 22 18 15 7 9 10 16 9 8 6 2 8 12 nan
nan nan nan nan nan nan nan nan nan nan nan nan nan nan nan nan nan nan nan nan nan nan nan nan nan nan nan nan nan nan nan nan nan nan nan nan nan nan nan nan nan nan nan nan nan
CAPE
6 11 10 11 12 14 15 13 11 12 12 12 13 12 11 9 8 0 0 0 0 0 0 0 0 4 5 0 0 0 0 0 0 0 0 0 0 0 0 0 0 0 4 729 1516
20 10 14 15 14 14 15 14 11 12 12 14 14 17 16 12 0 0 0 0 0 0 0 0 0 5 11 0 5 2 0 0 0 0 0 0 0 0 0 0 0 0 0 684 1191
16 21 23 23 26 14 14 16 17 16 15 17 18 17 17 6 0 0 0 0 0 0 0 0 0 6 11 5 6 0 0 0 0 0 0 0 0 0 0 0 0 0 0 198 1108
20 18 21 12 18 17 16 17 17 13 11 13 16 15 20 4 0 0 0 0 0 0 0 0 0 5 3 1 0 0 0 0 0 0 0 0 0 0 0 0 0 0 0 4 893
26 23 12 14 21 23 21 16 15 8 7 5 2 20 13 1 0 0 0 0 2 0 0 0 0 0 1 0 0 0 0 0 0 0 0 0 0 0 0 0 0 0 0 0 185
26 40 36 23 26 17 15 15 11 2 0 0 0 2 9 2 0 0 0 0 1 0 1 3 3 0 0 0 0 0 1 0 0 0 0 0 0 0 0 0 0 0 0 0 0
33 24 24 37 41 23 20 10 2 0 0 0 0 0 7 0 0 0 0 0 0 24 39 34 16 16 7 6 0 0 4 7 2 1 3 6 0 0 0 0 0 0 0 0 0
23 18 27 34 39 36 18 6 0 0 0 2 1 9 4 0 0 0 0 0 0 0 26 61 59 68 26 22 16 10 17 11 0 4 1 12 0 0 0 0 0 0 0 0 0
26 31 26 31 27 12 15 0 0 0 6 6 17 15 0 0 0 0 0 0 0 4 0 40 87 77 80 76 41 23 5 3 1 1 6 22 0 0 0 0 0 0 0 0 0
24 24 30 22 10 10 10 0 0 0 0 0 2 1 0 0 0 0 0 4 0 0 36 37 92 66 58 66 5 2 22 8 2 1 8 11 0 0 0 0 0 0 0 0 0
25 16 19 17 5 6 0 0 0 0 0 0 0 0 0 0 0 0 0 7 45 47 37 47 79 42 16 11 0 0 0 4 0 0 19 20 3 3 0 0 0 0 0 0 0
19 13 23 18 9 1 1 0 9 7 2 0 0 0 0 0 0 0 1 0 16 28 44 86 66 6 0 14 41 23 34 12 4 10 26 15 12 13 5 1 0 0 0 0 2
6 13 26 29 0 8 0 0 0 1 0 0 0 1 0 0 0 0 14 31 21 12 73 86 7 4 37 42 81 71 41 19 15 18 22 56 28 7 0 2 0 0 1 1 1
7 32 24 23 2 0 1 0 0 1 9 0 20 29 0 0 0 4 1 10 61 5 1 107 5 52 64 66 54 165 27 44 52 66 81 37 14 3 0 0 0 0 0 0 0
12 12 10 1 13 4 0 0 0 38 7 0 0 0 0 0 0 0 0 21 8 5 11 0 30 27 78 36 54 38 64 16 69 122 109 122 50 0 3 0 0 0 0 0 1
3 3 4 0 0 0 0 0 3 41 0 0 0 0 0 0 0 10 2 0 2 0 0 25 55 25 12 6 30 23 42 46 120 153 60 12 35 0 0 0 0 0 0 0 0
0 0 0 0 0 0 0 0 29 23 0 0 4 4 0 21 25 24 25 8 6 2 0 0 0 43 27 44 67 77 142 118 86 88 85 0 39 0 0 0 0 0 0 0 0
0 0 0 0 0 0 0 17 7 0 10 11 15 7 16 47 22 31 46 13 4 1 0 2 2 116 25 91 75 36 130 131 32 19 39 0 8 0 0 0 0 0 0 0 0
0 0 0 0 0 0 31 25 12 15 23 19 23 35 23 33 26 39 30 17 26 10 8 3 0 0 0 4 81 33 74 0 26 1 23 29 0 0 0 0 0 0 0 0 0
0 0 12 0 0 16 49 26 20 29 36 49 55 34 47 38 41 38 34 31 8 13 13 4 10 0 0 1 0 118 12 84 101 30 8 13 12 10 11 19 6 0 0 0 0
12 5 8 0 4 53 56 24 27 32 45 36 59 54 67 51 50 44 29 30 65 0 1 18 36 1 0 16 7 49 94 5 8 0 15 39 21 7 13 30 25 7 0 0 0
21 5 11 0 29 37 43 9 28 52 64 39 55 69 68 63 44 44 37 38 25 26 11 9 21 1 0 1 6 28 5 71 66 0 1 11 24 30 1 0 15 18 0 0 0
35 4 19 5 39 36 18 13 34 34 41 49 48 60 66 54 46 41 45 30 35 11 31 34 10 5 0 0 0 3 5 7 9 3 57 44 33 34 1 0 0 3 4 0 0
67 43 18 18 34 49 41 16 18 32 52 41 51 60 47 63 52 45 31 22 28 12 16 11 3 10 3 5 6 2 0 1 14 49 30 17 0 28 0 0 0 0 12 0 0
38 30 37 28 30 43 44 56 39 28 61 60 41 52 65 58 31 49 27 26 30 5 2 16 6 5 0 0 0 0 0 0 2 0 1 11 11 14 10 0 1 5 9 0 0
56 55 37 27 35 41 41 45 37 24 48 39 66 62 47 68 52 27 23 13 21 15 25 14 12 10 0 0 0 0 0 0 0 0 0 0 0 0 0 2 1 0 0 0 0
53 44 61 6 29 55 52 33 48 68 50 56 52 90 52 35 17 5 13 16 15 23 25 20 18 12 0 0 0 2 6 0 6 1 1 1 2 2 8 0 0 0 0 0 0